Стучка

Latvia     56˚37′58″N   25˚13′01″E
temp.,
°C
wind,
m/s
gust,
m/s
humid.,
%
clouds,
%
prec.,
mm/h
press.,
hPa
HPBL,
m
1 december, tue
tue123:00−1˚sw4997100 1.5 1019590
02:00ssw4995100 2.0 1021490
05:00−1˚ssw4895100 0.4 1021529
08:00s4890100 0.4 1023513
11:00ssw479295 0.0 1025513
14:00ssw359198 0.1 1027504
17:00−1˚ssw3690100 0.0 1028482
20:00−1˚s3687100 0.1 1030534
2 december, wed
wed223:00−3˚sse2592100 0.0 1031136
02:00−4˚sse249397 0.0 1032128
05:00−4˚se249499 0.0 1031131
08:00−4˚se259398 0.0 1032161
11:00−3˚se358825 0.0 1031267
14:00−2˚se368642 0.0 1030363
17:00−4˚ese269458 0.0 1029177
20:00−5˚ese379529 0.0 1028237
3 december, thu
thu323:00−5˚ese379612 0.0 1027252
02:00−3˚ese389233 0.0 1026305
05:00−3˚se389485 0.0 1024366
08:00−2˚se478893 0.0 1023617
11:00−2˚se4986100 0.0 1022668
14:00−1˚sse4888100 0.1 1021699
17:00−2˚se4987100 0.1 1020742
20:00−2˚se498799 0.1 1019707
4 december, fri
fri423:00−1˚sse5108596 0.0 1019864
02:00se5108698 0.1 1018861
05:00se51186100 0.0 1017862
08:00se61285100 0.0 1016781
11:00+1˚se61285100 0.0 1017788
14:00+1˚se61385100 0.0 1016817
17:00+2˚se61387100 0.0 1015880
20:00+3˚se61487100 0.0 1015870
5 december, sat
sat523:00+3˚se71586100 0.0 1014806
02:00+2˚se71588100 0.0 1014698
05:00+2˚se61389100 0.0 1014663
08:00+2˚se61491100 0.0 1015692
11:00+3˚se51392100 0.1 1016688
14:00+3˚se61392100 0.1 1016668
17:00+3˚se61392100 0.0 1016669
20:00+3˚se61392100 0.0 1017643